SCP
0 0 0 0 0 0 0 0 0 0 0 0 0 0 0 0 0 0 1 1 1 1 1 1 1 1 1 1 1 1 1 1 0 0 0 0 0 0 0 0 0 0 0 0
0 0 0 0 0 0 0 0 0 0 0 0 0 0 0 0 0 0 0 1 1 1 1 1 1 1 1 1 1 1 1 1 1 0 0 0 0 0 0 0 0 0 0 0
0 0 0 0 0 0 0 0 0 0 0 0 0 0 0 0 0 0 0 1 1 1 1 1 1 1 1 1 1 1 1 1 1 1 0 0 0 0 0 0 0 0 0 0
0 0 0 0 0 0 0 0 0 0 0 0 0 0 0 0 0 0 0 0 1 1 1 1 1 1 1 1 1 1 1 1 1 1 1 0 0 0 0 0 1 1 0 0
0 0 0 0 0 0 0 0 0 0 0 0 0 0 0 0 0 0 0 0 1 1 1 1 1 1 1 1 1 1 1 1 1 1 1 1 0 0 0 0 1 1 0 0
0 0 0 0 0 0 0 0 0 0 0 0 0 0 0 0 0 0 0 0 0 1 1 1 1 1 1 1 1 1 1 1 1 1 1 1 0 0 0 0 1 1 1 0
0 0 0 0 0 0 0 0 0 0 0 0 0 0 0 0 0 0 0 0 0 1 1 1 1 1 1 1 1 1 1 1 1 1 1 1 1 1 0 0 1 1 0 0
0 0 0 0 0 0 0 0 0 0 0 0 0 0 0 0 0 0 0 0 0 1 1 1 1 1 1 1 1 1 2 2 1 1 1 1 1 1 1 1 1 0 0 0
0 0 0 0 0 0 0 0 0 0 0 0 0 0 0 0 0 0 0 0 0 1 1 1 1 1 1 1 1 2 2 2 2 1 1 1 1 1 1 1 1 1 1 1
0 0 0 0 0 0 0 0 0 0 0 0 0 0 0 0 0 0 0 0 0 1 1 1 1 1 1 1 1 2 2 2 2 2 1 1 1 1 1 1 1 1 1 1
0 0 0 0 0 0 0 0 0 0 0 0 0 0 0 0 0 0 0 0 0 1 1 1 1 1 1 1 1 2 2 2 2 2 2 1 1 1 1 1 1 1 1 1
0 0 0 0 0 0 0 0 0 0 0 0 0 0 0 0 0 0 0 0 0 1 1 1 1 1 1 1 1 1 2 2 2 2 2 2 2 1 1 1 1 1 1 1
0 0 0 0 0 0 0 0 0 0 0 0 0 0 0 0 0 0 1 1 0 1 1 1 1 1 1 1 1 1 1 2 2 2 2 2 2 2 2 2 2 2 2 2
0 0 0 0 0 0 0 0 0 0 0 0 0 0 0 0 0 1 1 1 1 1 1 1 1 1 1 1 2 2 2 2 2 2 2 2 2 2 2 2 2 2 2 2
0 0 0 0 0 0 0 0 0 0 0 0 0 0 0 0 0 1 1 1 1 1 1 1 1 1 2 2 2 2 2 2 2 2 2 2 2 2 2 2 2 2 2 2
0 0 0 0 0 0 0 0 0 0 0 0 0 0 0 0 1 1 1 1 1 1 1 1 1 2 2 2 2 2 2 3 3 3 3 3 3 3 3 3 3 3 3 3
0 0 0 0 0 0 0 0 0 0 0 0 0 0 0 0 1 1 1 1 1 1 1 1 1 1 2 2 2 2 3 3 3 3 3 3 3 3 3 3 3 3 3 3
0 0 0 0 0 0 0 0 0 0 0 0 0 0 0 0 1 1 1 1 1 1 1 1 1 1 2 2 2 2 2 3 3 3 3 3 3 3 3 3 3 3 2 2
0 0 0 0 0 0 0 0 0 0 0 0 0 0 0 0 1 1 1 1 1 1 1 1 1 1 1 2 2 2 2 2 2 3 3 3 3 2 2 2 2 2 2 2
0 0 0 0 0 0 0 0 0 0 0 0 0 0 0 1 1 1 1 1 1 1 1 1 1 1 1 2 2 2 2 2 2 2 2 2 2 2 2 2 2 2 2 2
0 0 0 0 0 0 0 0 0 0 0 0 0 1 1 1 1 1 1 1 1 1 1 1 1 1 2 2 2 2 2 2 2 2 2 2 2 2 2 2 2 2 2 2
0 0 0 0 0 0 0 0 0 0 1 1 1 1 1 1 1 1 1 1 1 1 1 1 1 2 2 2 2 2 2 2 2 2 2 2 2 2 2 2 2 2 2 2
0 0 0 0 0 0 0 0 0 0 1 1 1 1 1 1 1 1 1 1 1 1 1 1 1 1 2 2 2 2 2 2 2 2 2 2 2 2 2 2 2 2 1 1
0 0 0 0 0 0 0 0 0 0 0 0 0 0 1 1 1 1 1 1 1 1 1 1 1 1 1 2 2 2 2 2 2 2 2 2 2 2 2 2 1 1 1 1
0 0 0 0 0 0 0 0 0 0 0 0 0 0 0 1 1 1 1 1 1 1 1 1 1 1 1 1 1 2 2 2 2 2 2 1 1 1 1 1 1 1 1 1
0 0 0 0 0 0 0 0 0 0 0 0 0 0 0 0 0 1 1 1 1 1 1 1 1 1 1 1 1 2 2 2 2 2 2 1 1 1 1 1 1 1 1 1
Wind_Speed
9 9 8 6 6 9 8 5 3 3 4 4 4 5 9 10 10 12 12 12 13 12 12 12 12 12 12 11 9 8 8 7 5 4 4 3 3 3 3 3 4 4 3 3
10 11 10 9 8 8 7 6 4 4 3 3 2 1 4 7 10 11 12 13 13 13 12 12 12 12 12 11 10 9 8 8 7 5 3 3 3 3 3 2 4 4 3 3
11 9 9 10 7 7 8 6 4 4 5 4 3 4 6 6 7 10 11 12 14 14 14 14 13 13 12 12 11 10 9 8 7 6 4 3 3 2 2 3 3 3 3 3
10 10 10 10 8 9 7 6 5 6 7 5 5 5 6 6 6 8 10 11 12 14 14 14 14 13 13 12 12 10 9 8 8 6 5 6 5 4 4 3 3 4 4 3
11 10 10 10 9 9 8 8 7 9 10 8 8 6 5 7 6 7 9 11 12 14 15 15 15 14 12 12 12 11 9 8 7 7 6 5 5 4 3 3 3 4 4 4
12 10 9 9 10 8 8 10 11 10 9 9 7 6 4 6 6 6 8 9 9 11 14 14 13 12 11 11 11 11 9 8 8 8 7 6 6 5 4 4 4 4 3 4
13 12 11 10 10 8 9 9 7 7 6 6 6 6 2 5 6 5 6 8 9 9 10 12 13 13 12 11 11 11 11 9 8 8 7 7 7 6 5 4 4 4 3 4
11 11 11 9 9 9 9 10 8 8 6 5 4 4 2 5 6 6 5 6 7 8 8 9 10 10 10 11 11 10 11 10 9 8 7 6 6 6 5 6 5 4 3 3
8 7 5 6 6 9 10 10 10 10 10 8 3 2 3 4 7 7 7 7 8 6 7 9 10 9 9 8 8 9 10 10 10 9 7 6 6 6 6 5 6 5 4 4
9 9 8 7 8 10 11 10 7 7 6 7 4 3 1 4 5 7 6 7 7 6 5 5 7 8 8 8 8 8 9 9 8 8 7 7 6 6 5 5 5 4 4 3
10 9 9 8 9 8 8 10 7 6 8 7 5 1 5 5 5 6 6 6 6 5 5 4 5 6 6 7 8 7 8 8 8 8 7 6 6 6 6 5 5 5 4 4
7 8 9 9 8 9 9 10 10 7 7 7 6 2 3 5 6 6 6 6 6 5 4 4 4 5 5 5 7 7 7 8 8 7 6 6 5 6 6 6 6 5 5 5
3 5 8 8 8 9 9 9 9 9 7 6 7 2 3 6 7 7 5 6 5 4 3 3 4 3 2 2 3 6 7 8 8 7 6 6 5 5 6 6 5 5 6 6
3 7 8 10 8 7 8 9 9 10 8 6 6 2 2 4 4 5 4 4 5 4 3 3 3 2 2 2 2 1 3 5 6 6 6 5 5 5 5 5 5 6 5 6
6 9 10 12 13 11 10 10 11 11 10 9 6 3 0 3 3 5 4 3 4 4 3 3 3 2 2 2 1 1 0 2 2 4 5 5 5 4 4 4 5 5 5 7
6 8 9 13 14 12 13 13 13 13 11 11 8 4 1 3 4 4 3 3 4 3 3 3 3 3 2 2 1 1 1 2 2 2 2 3 3 3 3 3 3 4 4 5
7 7 10 12 13 13 14 12 11 10 8 7 5 2 1 3 3 4 3 2 3 2 3 2 3 2 2 1 1 1 0 1 2 2 2 2 2 3 3 3 3 3 3 4
8 7 8 12 13 15 10 7 7 7 5 3 2 2 2 4 4 3 3 2 2 3 2 3 2 2 2 1 1 0 0 1 1 2 2 2 2 2 2 2 3 3 2 3
8 6 9 10 14 14 10 6 6 6 4 3 2 2 2 3 3 4 5 5 5 3 3 3 3 2 2 2 1 0 1 1 1 1 1 2 2 2 2 3 3 3 3 3
9 7 9 11 13 12 6 6 6 5 4 4 3 3 2 1 1 4 7 6 6 5 4 4 4 4 3 3 3 2 2 1 2 2 2 1 1 2 3 3 3 2 2 3
8 9 11 12 13 8 5 4 4 5 2 5 4 3 3 4 4 4 4 4 4 4 4 4 4 4 3 3 3 3 3 2 2 2 2 2 2 3 4 3 3 2 3 3
9 9 9 10 12 6 6 4 3 4 5 5 4 4 4 4 3 3 2 2 3 3 3 3 3 3 3 3 3 3 3 3 3 3 3 3 3 4 4 2 3 3 3 4
6 5 4 4 2 3 5 5 5 5 5 4 4 4 3 2 2 2 2 2 2 2 2 2 3 3 3 3 3 4 3 3 3 3 3 3 4 4 4 3 4 4 4 4
4 2 3 3 2 2 3 5 5 6 6 6 5 4 3 3 3 3 2 2 1 2 2 3 3 3 3 4 4 4 4 3 4 4 4 4 4 5 4 4 4 4 4 4
7 5 5 4 1 1 2 4 4 5 5 5 5 4 4 4 4 4 3 2 2 2 2 2 2 3 4 4 4 5 5 4 4 4 5 5 6 5 4 4 3 4 3 3
7 6 5 3 2 2 1 2 3 3 4 5 5 5 5 5 5 5 3 3 2 2 2 3 4 4 4 4 5 5 5 5 5 5 5 6 5 4 4 4 3 3 4 4
Wind_Direction
230 244 249 240 224 243 257 270 271 233 193 198 188 164 162 169 171 162 164 169 172 175 172 169 173 167 162 161 163 164 171 164 167 171 178 184 192 201 210 189 165 175 202 203
231 238 250 258 245 254 260 265 265 277 225 227 170 177 176 180 187 172 170 174 176 174 171 172 175 174 169 168 169 170 178 174 178 181 185 193 191 202 203 196 159 184 192 206
238 250 253 256 253 259 266 262 264 265 272 253 213 203 209 210 202 172 173 175 174 174 174 178 179 180 177 177 178 179 183 180 185 185 182 198 187 211 214 181 171 188 198 208
248 246 253 259 264 269 269 277 277 274 266 253 238 232 206 195 199 182 175 173 174 173 175 179 180 183 184 180 180 181 181 181 181 189 194 198 196 201 213 193 180 183 199 220
247 245 249 258 261 265 273 280 277 267 266 263 246 247 191 178 204 199 179 175 177 173 174 179 181 183 187 183 180 177 174 178 179 190 199 205 212 207 209 199 184 191 192 212
254 253 254 257 262 255 270 274 266 260 264 263 261 261 205 177 186 186 183 172 171 172 172 173 175 176 183 183 180 172 168 176 183 193 200 204 215 218 218 212 193 201 203 207
244 242 238 243 255 243 246 260 262 255 250 257 264 260 160 155 166 161 154 154 164 165 166 166 170 174 182 185 182 174 168 176 184 192 204 207 217 219 217 224 213 217 222 210
243 237 227 221 240 259 250 251 256 269 266 261 248 262 130 128 126 116 123 132 132 139 151 160 167 173 182 185 182 175 169 176 184 192 198 203 206 214 217 218 227 216 226 230
258 254 229 224 235 257 265 260 267 273 278 276 237 197 111 118 122 125 129 123 126 135 146 156 156 166 175 183 181 178 168 174 185 192 191 196 201 212 218 211 214 228 227 222
268 273 254 226 224 234 255 274 282 283 288 288 286 264 161 134 113 111 106 114 122 132 135 139 147 158 169 175 179 175 167 174 181 187 194 195 199 207 216 223 218 217 228 234
257 269 264 237 236 245 247 253 262 281 285 287 286 301 96 129 117 113 113 111 109 112 125 136 148 152 153 160 172 180 173 173 181 190 196 200 193 201 206 216 222 222 226 226
251 264 270 258 250 254 256 265 262 256 259 274 277 271 91 109 98 87 86 91 93 91 105 126 142 132 148 157 164 173 181 182 185 187 191 199 198 200 208 213 217 219 221 223
303 265 265 256 247 233 244 252 264 271 266 265 267 241 123 95 90 88 83 91 93 88 89 99 87 101 129 146 162 174 184 189 188 185 189 195 203 209 217 218 213 217 219 223
277 263 268 272 279 271 258 262 268 272 273 272 268 250 128 100 103 99 91 98 101 95 89 100 110 104 80 70 70 101 192 179 186 179 186 191 202 215 223 228 221 221 222 223
253 253 259 269 274 272 266 267 265 265 274 279 275 261 257 129 109 111 122 117 106 100 90 78 86 88 82 71 56 30 319 145 174 173 187 194 200 210 221 227 236 229 224 229
241 269 275 270 268 269 265 257 260 263 261 261 265 255 182 95 109 112 118 123 105 88 75 63 52 63 69 75 73 55 357 113 141 194 192 184 193 202 219 229 240 243 235 235
249 256 267 270 273 273 264 261 263 264 269 280 279 288 71 91 89 108 119 131 109 77 39 54 50 44 50 60 57 53 301 145 150 167 176 184 200 209 217 229 230 238 246 243
246 260 264 268 271 265 272 276 277 279 278 287 309 18 65 94 87 75 65 58 88 81 56 25 31 38 32 33 57 22 263 179 163 182 193 194 209 228 235 233 246 243 243 248
249 243 255 263 263 259 263 279 283 276 288 343 349 22 51 85 105 89 66 56 61 61 47 29 5 4 16 14 13 307 285 246 208 214 221 225 211 217 229 233 248 248 238 241
233 225 242 255 264 266 289 318 324 283 260 1 30 32 25 48 270 80 63 54 48 41 32 18 6 9 16 3 347 322 297 291 257 241 232 227 210 219 232 236 243 248 250 248
231 230 238 251 259 266 314 324 295 271 341 6 28 37 34 33 37 61 58 53 46 44 30 23 13 10 9 358 343 320 309 300 301 282 265 251 244 247 239 233 234 242 243 252
242 246 243 252 257 272 9 17 15 29 27 23 19 36 51 64 64 64 50 39 28 23 19 9 8 6 8 353 332 316 304 307 306 295 281 270 259 261 259 243 242 244 244 248
254 275 283 280 296 45 36 42 38 32 21 17 19 33 36 18 19 28 30 16 360 355 359 351 349 349 349 348 328 304 303 305 298 288 285 281 272 260 260 252 246 245 244 246
267 284 284 287 271 12 37 38 26 21 16 0 359 7 359 341 336 341 344 345 343 341 340 335 332 324 331 335 329 313 302 287 283 283 283 270 262 258 251 241 245 242 241 241
303 296 273 266 286 336 19 24 16 3 349 335 337 340 338 331 315 313 312 320 316 312 311 308 306 305 307 314 314 309 311 306 293 283 278 274 266 259 252 244 246 247 257 252
295 298 286 291 323 309 324 351 342 329 319 326 327 327 324 314 306 305 308 316 313 314 316 308 300 295 298 305 305 310 314 305 292 282 279 279 276 269 262 248 238 224 230 224